Time,TemperatureF,DewpointF,PressureIn,WindDirection,WindDirectionDegrees,WindSpeedMPH,WindSpeedGustMPH,Humidity,HourlyPrecipIn,Conditions,Clouds,dailyrainin,SoftwareType,DateUTC
2013-08-27 00:02:00,64.4,63.1,0.00,West,260,0.0,6.2,96,0.00,,,-99.99,VWS V12.07,2013-08-27 04:02:00,
2013-08-27 00:05:00,64.3,63.0,0.00,WSW,252,4.4,8.7,96,0.00,,,-99.99,VWS V12.07,2013-08-27 04:05:00,
2013-08-27 00:12:00,64.3,63.0,0.00,West,277,3.4,9.4,96,0.00,,,-99.99,VWS V12.07,2013-08-27 04:12:00,
2013-08-27 00:22:00,64.3,63.0,0.00,West,264,3.4,5.2,96,0.00,,,-99.99,VWS V12.07,2013-08-27 04:22:00,
2013-08-27 00:25:00,64.3,63.0,0.00,SSW,197,0.0,7.4,96,0.00,,,-99.99,VWS V12.07,2013-08-27 04:25:00,
2013-08-27 00:32:00,64.3,63.0,0.00,West,281,7.3,9.4,96,0.00,,,-99.99,VWS V12.07,2013-08-27 04:32:00,
2013-08-27 00:35:00,64.3,63.0,0.00,NW,307,4.8,9.4,96,0.00,,,-99.99,VWS V12.07,2013-08-27 04:35:00,
2013-08-27 00:42:00,64.3,63.1,0.00,West,276,5.3,6.8,96,0.00,,,-99.99,VWS V12.07,2013-08-27 04:42:00,
2013-08-27 00:52:00,64.1,63.2,0.00,WNW,294,5.5,8.9,97,0.00,,,-99.99,VWS V12.07,2013-08-27 04:52:00,
2013-08-27 01:02:00,64.1,63.2,0.00,NW,312,5.2,5.9,97,0.00,,,-99.99,VWS V12.07,2013-08-27 05:02:00,
2013-08-27 01:12:00,64.1,63.3,0.00,SW,214,3.2,8.6,97,0.00,,,-99.99,VWS V12.07,2013-08-27 05:12:00,
2013-08-27 01:22:00,64.0,63.3,0.00,WSW,249,0.0,3.2,98,0.00,,,-99.99,VWS V12.07,2013-08-27 05:22:00,
2013-08-27 01:32:00,63.9,63.2,0.00,West,281,0.0,8.1,98,0.00,,,-99.99,VWS V12.07,2013-08-27 05:32:00,
2013-08-27 01:42:00,63.8,63.2,0.00,West,259,5.8,8.8,98,0.00,,,-99.99,VWS V12.07,2013-08-27 05:42:00,
2013-08-27 01:52:00,63.7,63.2,0.00,SW,219,3.2,10.6,98,0.00,,,-99.99,VWS V12.07,2013-08-27 05:52:00,
2013-08-27 02:02:00,63.7,63.2,0.00,West,274,3.5,6.8,98,0.00,,,-99.99,VWS V12.07,2013-08-27 06:02:00,
2013-08-27 02:12:00,63.5,63.1,0.00,West,281,0.0,6.8,99,0.00,,,-99.99,VWS V12.07,2013-08-27 06:12:00,
2013-08-27 02:22:00,63.3,63.1,0.00,WSW,256,0.0,5.0,99,0.00,,,-99.99,VWS V12.07,2013-08-27 06:22:00,
2013-08-27 02:32:00,63.2,63.1,0.00,SW,233,0.0,6.8,100,0.00,,,-99.99,VWS V12.07,2013-08-27 06:32:00,
2013-08-27 02:42:00,63.2,63.2,0.00,WNW,290,5.7,7.5,100,0.00,,,-99.99,VWS V12.07,2013-08-27 06:42:00,
2013-08-27 02:52:00,63.2,63.2,0.00,West,280,0.0,7.9,100,0.00,,,-99.99,VWS V12.07,2013-08-27 06:52:00,
2013-08-27 03:02:00,63.1,63.1,0.00,WNW,302,0.0,5.0,100,0.00,,,-99.99,VWS V12.07,2013-08-27 07:02:00,
2013-08-27 03:12:00,63.1,63.1,0.00,West,264,4.8,7.4,100,0.00,,,-99.99,VWS V12.07,2013-08-27 07:12:00,
2013-08-27 03:22:00,63.1,63.1,0.00,West,273,5.7,7.3,100,0.00,,,-99.99,VWS V12.07,2013-08-27 07:22:00,
2013-08-27 03:32:00,63.1,63.1,0.00,West,269,0.0,10.5,100,0.00,,,-99.99,VWS V12.07,2013-08-27 07:32:00,
2013-08-27 03:42:00,63.2,63.2,0.00,West,263,0.0,8.1,100,0.00,,,-99.99,VWS V12.07,2013-08-27 07:42:00,
2013-08-27 03:52:00,63.1,63.1,0.00,WNW,295,5.7,8.8,100,0.00,,,-99.99,VWS V12.07,2013-08-27 07:52:00,
2013-08-27 04:02:00,63.1,63.1,0.00,WNW,283,5.8,8.2,100,0.00,,,-99.99,VWS V12.07,2013-08-27 08:02:00,
2013-08-27 04:12:00,63.1,63.1,0.00,NW,314,6.2,10.3,100,0.00,,,-99.99,VWS V12.07,2013-08-27 08:12:00,
2013-08-27 04:22:00,63.1,63.1,0.00,West,274,4.6,7.1,100,0.00,,,-99.99,VWS V12.07,2013-08-27 08:22:00,
2013-08-27 04:32:00,63.0,63.0,0.00,SW,224,0.0,10.3,100,0.00,,,-99.99,VWS V12.07,2013-08-27 08:32:00,
2013-08-27 04:42:00,63.0,63.0,0.00,WNW,288,4.5,6.0,100,0.00,,,-99.99,VWS V12.07,2013-08-27 08:42:00,
2013-08-27 04:52:00,63.0,63.0,0.00,SW,226,3.2,9.6,100,0.00,,,-99.99,VWS V12.07,2013-08-27 08:52:00,
2013-08-27 05:02:00,62.9,62.9,0.00,West,273,5.9,7.2,100,0.00,,,-99.99,VWS V12.07,2013-08-27 09:02:00,
2013-08-27 05:12:00,63.0,63.0,0.00,West,273,0.0,8.9,100,0.00,,,-99.99,VWS V12.07,2013-08-27 09:12:00,
2013-08-27 05:22:00,63.1,63.1,0.00,SW,235,0.0,5.4,100,0.00,,,-99.99,VWS V12.07,2013-08-27 09:22:00,
2013-08-27 05:32:00,63.1,63.1,0.00,SSW,193,4.3,8.9,100,0.00,,,-99.99,VWS V12.07,2013-08-27 09:32:00,
2013-08-27 05:42:00,63.1,63.1,0.00,West,274,0.0,7.3,100,0.00,,,-99.99,VWS V12.07,2013-08-27 09:42:00,
2013-08-27 05:52:00,63.1,63.1,0.00,West,277,6.8,10.3,100,0.00,,,-99.99,VWS V12.07,2013-08-27 09:52:00,
2013-08-27 06:02:00,63.2,63.2,0.00,WSW,252,3.3,5.8,100,0.00,,,-99.99,VWS V12.07,2013-08-27 10:02:00,
2013-08-27 06:12:00,63.1,63.1,0.00,WSW,255,0.0,6.5,100,0.00,,,-99.99,VWS V12.07,2013-08-27 10:12:00,
2013-08-27 06:22:00,63.0,63.0,0.00,WNW,298,3.2,3.3,100,0.00,,,-99.99,VWS V12.07,2013-08-27 10:22:00,
2013-08-27 06:32:00,63.0,63.0,0.00,West,281,0.0,7.6,100,0.00,,,-99.99,VWS V12.07,2013-08-27 10:32:00,
2013-08-27 06:42:00,62.9,62.9,0.00,SW,219,4.3,7.7,100,0.00,,,-99.99,VWS V12.07,2013-08-27 10:42:00,
2013-08-27 06:52:00,63.0,63.0,0.00,SSW,193,0.0,7.7,100,0.00,,,-99.99,VWS V12.07,2013-08-27 10:52:00,
2013-08-27 07:02:00,62.9,62.9,0.00,SW,222,0.0,4.2,100,0.00,,,-99.99,VWS V12.07,2013-08-27 11:02:00,
2013-08-27 07:12:00,62.9,62.9,0.00,West,278,0.0,8.3,100,0.00,,,-99.99,VWS V12.07,2013-08-27 11:12:00,
2013-08-27 07:22:00,62.9,62.9,0.00,SW,226,0.0,0.0,100,0.00,,,-99.99,VWS V12.07,2013-08-27 11:22:00,
2013-08-27 07:32:00,63.1,63.1,0.00,WNW,297,0.0,8.3,100,0.00,,,-99.99,VWS V12.07,2013-08-27 11:32:00,
2013-08-27 07:42:00,63.3,63.3,0.00,West,259,0.0,0.0,100,0.00,,,-99.99,VWS V12.07,2013-08-27 11:42:00,
2013-08-27 07:52:00,63.2,63.2,0.00,WSW,248,0.0,6.8,100,0.00,,,-99.99,VWS V12.07,2013-08-27 11:52:00,
2013-08-27 08:02:00,63.3,63.3,0.00,SE,128,0.0,6.1,100,0.00,,,-99.99,VWS V12.07,2013-08-27 12:02:00,
2013-08-27 08:12:00,63.4,63.4,0.00,East,86,0.0,8.0,100,0.00,,,-99.99,VWS V12.07,2013-08-27 12:12:00,
2013-08-27 08:22:00,63.5,63.5,0.00,East,79,0.0,2.1,100,0.00,,,-99.99,VWS V12.07,2013-08-27 12:22:00,
2013-08-27 08:32:00,63.9,63.9,0.00,East,79,0.0,2.1,100,0.00,,,-99.99,VWS V12.07,2013-08-27 12:32:00,
2013-08-27 08:42:00,64.4,64.4,0.00,NE,39,0.0,3.5,100,0.00,,,-99.99,VWS V12.07,2013-08-27 12:42:00,
2013-08-27 08:52:00,65.1,65.1,0.00,NE,39,0.0,3.5,100,0.00,,,-99.99,VWS V12.07,2013-08-27 12:52:00,
2013-08-27 09:02:00,65.6,65.6,0.00,NE,39,0.0,0.0,100,0.00,,,-99.99,VWS V12.07,2013-08-27 13:02:00,
2013-08-27 09:12:00,65.7,65.7,0.00,NE,41,0.0,7.8,100,0.00,,,-99.99,VWS V12.07,2013-08-27 13:12:00,
2013-08-27 09:22:00,65.9,65.9,0.00,South,191,0.0,4.3,100,0.00,,,-99.99,VWS V12.07,2013-08-27 13:22:00,
2013-08-27 09:32:00,66.0,66.0,0.00,South,191,0.0,4.3,100,0.00,,,-99.99,VWS V12.07,2013-08-27 13:32:00,
2013-08-27 09:42:00,66.2,66.2,0.00,South,191,0.0,0.0,100,0.00,,,-99.99,VWS V12.07,2013-08-27 13:42:00,
2013-08-27 09:52:00,66.3,66.3,0.00,SE,127,1.8,7.8,100,0.00,,,-99.99,VWS V12.07,2013-08-27 13:52:00,
2013-08-27 10:02:00,66.6,66.6,0.00,SE,134,0.0,7.8,100,0.00,,,-99.99,VWS V12.07,2013-08-27 14:02:00,
2013-08-27 10:12:00,67.0,67.0,0.00,SE,129,6.7,7.8,100,0.00,,,-99.99,VWS V12.07,2013-08-27 14:12:00,
2013-08-27 10:22:00,67.3,67.3,0.00,NE,42,3.2,6.7,100,0.00,,,-99.99,VWS V12.07,2013-08-27 14:22:00,
2013-08-27 10:32:00,67.4,67.4,0.00,NE,56,0.0,10.3,100,0.00,,,-99.99,VWS V12.07,2013-08-27 14:32:00,
2013-08-27 10:42:00,67.9,67.9,0.00,ENE,65,0.0,5.5,100,0.00,,,-99.99,VWS V12.07,2013-08-27 14:42:00,
2013-08-27 10:52:00,68.4,68.4,0.00,ENE,66,0.0,7.8,100,0.00,,,-99.99,VWS V12.07,2013-08-27 14:52:00,
2013-08-27 11:02:00,69.3,69.0,0.00,SSE,160,0.0,3.2,99,0.00,,,-99.99,VWS V12.07,2013-08-27 15:02:00,
2013-08-27 11:12:00,69.5,68.8,0.00,SE,129,2.7,7.6,98,0.00,,,-99.99,VWS V12.07,2013-08-27 15:12:00,
2013-08-27 11:22:00,70.0,69.2,0.00,SE,128,0.0,0.0,97,0.00,,,-99.99,VWS V12.07,2013-08-27 15:22:00,
2013-08-27 11:32:00,70.1,69.1,0.00,East,101,4.6,5.9,97,0.00,,,-99.99,VWS V12.07,2013-08-27 15:32:00,
2013-08-27 11:42:00,70.5,69.3,0.00,ENE,77,0.0,0.0,96,0.00,,,-99.99,VWS V12.07,2013-08-27 15:42:00,
2013-08-27 11:52:00,70.5,69.3,0.00,SE,132,0.0,6.7,96,0.00,,,-99.99,VWS V12.07,2013-08-27 15:52:00,
2013-08-27 12:02:00,70.7,69.4,0.00,East,94,0.0,5.4,96,0.00,,,-99.99,VWS V12.07,2013-08-27 16:02:00,
2013-08-27 12:12:00,70.3,68.8,0.00,SE,143,0.0,9.8,95,0.00,,,-99.99,VWS V12.07,2013-08-27 16:12:00,
2013-08-27 12:22:00,70.4,69.8,0.00,SE,138,0.0,3.1,98,0.00,,,-99.99,VWS V12.07,2013-08-27 16:22:00,
2013-08-27 12:32:00,70.4,69.1,0.00,NNE,22,0.0,10.6,96,0.00,,,-99.99,VWS V12.07,2013-08-27 16:32:00,
2013-08-27 12:42:00,70.1,69.0,0.00,ESE,122,0.0,6.3,96,0.00,,,-99.99,VWS V12.07,2013-08-27 16:42:00,
2013-08-27 12:52:00,70.5,69.5,0.00,East,79,6.2,9.9,97,0.00,,,-99.99,VWS V12.07,2013-08-27 16:52:00,
2013-08-27 13:02:00,70.7,69.6,0.00,East,96,2.9,7.5,96,0.00,,,-99.99,VWS V12.07,2013-08-27 17:02:00,
2013-08-27 13:12:00,70.6,69.6,0.00,East,101,2.9,9.9,96,0.00,,,-99.99,VWS V12.07,2013-08-27 17:12:00,
2013-08-27 13:22:00,70.9,69.3,0.00,East,86,3.3,4.9,95,0.00,,,-99.99,VWS V12.07,2013-08-27 17:22:00,
2013-08-27 13:32:00,70.6,69.1,0.00,East,79,0.0,8.3,95,0.00,,,-99.99,VWS V12.07,2013-08-27 17:32:00,
2013-08-27 13:42:00,70.7,69.3,0.00,ESE,111,8.8,10.1,95,0.00,,,-99.99,VWS V12.07,2013-08-27 17:42:00,
2013-08-27 13:52:00,71.1,69.3,0.00,ENE,58,0.0,10.4,94,0.00,,,-99.99,VWS V12.07,2013-08-27 17:52:00,
2013-08-27 14:02:00,71.1,69.9,0.00,SE,138,4.4,4.9,96,0.00,,,-99.99,VWS V12.07,2013-08-27 18:02:00,
2013-08-27 14:12:00,70.8,69.8,0.00,NE,44,4.7,9.8,96,0.00,,,-99.99,VWS V12.07,2013-08-27 18:12:00,
2013-08-27 14:22:00,71.2,69.8,0.00,SE,142,3.3,8.6,96,0.00,,,-99.99,VWS V12.07,2013-08-27 18:22:00,
2013-08-27 14:32:00,71.8,70.2,0.00,ESE,105,7.4,10.6,95,0.00,,,-99.99,VWS V12.07,2013-08-27 18:32:00,
2013-08-27 14:42:00,71.1,69.8,0.00,ESE,118,0.0,5.9,96,0.00,,,-99.99,VWS V12.07,2013-08-27 18:42:00,
2013-08-27 14:52:00,71.4,70.0,0.00,NNE,21,0.0,7.0,95,0.00,,,-99.99,VWS V12.07,2013-08-27 18:52:00,
2013-08-27 15:02:00,71.5,70.0,0.00,East,93,0.0,3.4,95,0.00,,,-99.99,VWS V12.07,2013-08-27 19:02:00,
2013-08-27 15:12:00,71.3,70.1,0.00,ENE,69,4.2,7.2,96,0.00,,,-99.99,VWS V12.07,2013-08-27 19:12:00,
2013-08-27 15:22:00,71.0,69.7,0.00,ESE,107,3.1,8.6,96,0.00,,,-99.99,VWS V12.07,2013-08-27 19:22:00,
2013-08-27 15:32:00,70.5,69.4,0.00,ESE,117,8.6,10.1,96,0.00,,,-99.99,VWS V12.07,2013-08-27 19:32:00,
2013-08-27 15:42:00,70.0,69.5,0.00,ENE,66,4.4,8.6,98,0.00,,,-99.99,VWS V12.07,2013-08-27 19:42:00,
2013-08-27 15:52:00,69.5,69.3,0.00,East,89,4.7,12.1,99,0.00,,,-99.99,VWS V12.07,2013-08-27 19:52:00,
2013-08-27 16:02:00,69.5,69.4,0.00,ESE,105,0.0,0.0,100,0.00,,,-99.99,VWS V12.07,2013-08-27 20:02:00,
2013-08-27 16:12:00,70.1,70.0,0.00,East,97,0.0,5.0,100,0.00,,,-99.99,VWS V12.07,2013-08-27 20:12:00,
2013-08-27 16:22:00,70.8,70.5,0.00,SE,139,4.8,6.9,99,0.00,,,-99.99,VWS V12.07,2013-08-27 20:22:00,
2013-08-27 16:32:00,70.8,70.2,0.00,NE,42,0.0,6.9,98,0.00,,,-99.99,VWS V12.07,2013-08-27 20:32:00,
2013-08-27 16:42:00,70.9,70.2,0.00,NE,48,0.0,0.0,98,0.00,,,-99.99,VWS V12.07,2013-08-27 20:42:00,
2013-08-27 16:52:00,70.7,69.9,0.00,NE,48,3.2,3.2,97,0.00,,,-99.99,VWS V12.07,2013-08-27 20:52:00,
2013-08-27 17:02:00,70.7,70.0,0.00,SE,138,2.1,6.0,98,0.00,,,-99.99,VWS V12.07,2013-08-27 21:02:00,
2013-08-27 17:12:00,70.7,70.0,0.00,NE,38,2.9,7.6,98,0.00,,,-99.99,VWS V12.07,2013-08-27 21:12:00,
2013-08-27 17:22:00,71.6,70.7,0.00,NNE,30,0.0,3.4,97,0.00,,,-99.99,VWS V12.07,2013-08-27 21:22:00,
2013-08-27 17:52:00,71.2,69.6,0.00,ENE,73,0.0,0.0,95,0.00,,,-99.99,VWS V12.07,2013-08-27 21:52:00,
2013-08-27 18:02:00,71.2,69.8,0.00,ENE,73,0.0,0.0,95,0.00,,,-99.99,VWS V12.07,2013-08-27 22:02:00,
2013-08-27 18:12:00,71.2,70.1,0.00,ENE,73,0.0,0.0,96,0.00,,,-99.99,VWS V12.07,2013-08-27 22:12:00,
2013-08-27 18:22:00,70.9,70.1,0.00,ENE,73,0.0,0.0,97,0.00,,,-99.99,VWS V12.07,2013-08-27 22:22:00,
2013-08-27 18:32:00,70.5,69.9,0.00,ENE,73,0.0,0.0,98,0.00,,,-99.99,VWS V12.07,2013-08-27 22:32:00,
2013-08-27 18:42:00,70.8,70.2,0.00,ENE,73,0.0,0.0,98,0.00,,,-99.99,VWS V12.07,2013-08-27 22:42:00,
2013-08-27 18:52:00,70.9,69.7,0.00,ENE,73,0.0,0.0,96,0.00,,,-99.99,VWS V12.07,2013-08-27 22:52:00,
2013-08-27 19:02:00,71.1,69.7,0.00,NE,34,0.0,0.0,95,0.00,,,-99.99,VWS V12.07,2013-08-27 23:02:00,
2013-08-27 19:12:00,71.5,70.2,0.00,NE,34,0.0,0.0,96,0.00,,,-99.99,VWS V12.07,2013-08-27 23:12:00,
2013-08-27 19:22:00,71.2,69.9,0.00,NE,34,0.0,0.0,96,0.00,,,-99.99,VWS V12.07,2013-08-27 23:22:00,
2013-08-27 19:32:00,70.7,69.5,0.00,NE,34,0.0,0.0,96,0.00,,,-99.99,VWS V12.07,2013-08-27 23:32:00,
2013-08-27 19:42:00,70.4,69.4,0.00,NE,34,0.0,0.0,96,0.00,,,-99.99,VWS V12.07,2013-08-27 23:42:00,
2013-08-27 19:52:00,69.9,68.9,0.00,NE,34,0.0,0.0,97,0.00,,,-99.99,VWS V12.07,2013-08-27 23:52:00,
2013-08-27 20:02:00,69.4,68.6,0.00,NE,34,0.0,0.0,97,0.00,,,-99.99,VWS V12.07,2013-08-28 00:02:00,
2013-08-27 20:12:00,69.0,68.3,0.00,NE,34,0.0,0.0,98,0.00,,,-99.99,VWS V12.07,2013-08-28 00:12:00,
2013-08-27 20:22:00,69.0,68.7,0.00,NE,34,0.0,0.0,99,0.00,,,-99.99,VWS V12.07,2013-08-28 00:22:00,
2013-08-27 20:32:00,68.8,68.7,0.00,NE,34,0.0,0.0,100,0.00,,,-99.99,VWS V12.07,2013-08-28 00:32:00,
2013-08-27 20:42:00,68.4,68.3,0.00,NE,34,0.0,0.0,100,0.00,,,-99.99,VWS V12.07,2013-08-28 00:42:00,
2013-08-27 20:52:00,68.3,68.3,0.00,NE,34,0.0,0.0,100,0.00,,,-99.99,VWS V12.07,2013-08-28 00:52:00,
2013-08-27 21:02:00,68.3,68.3,0.00,NE,34,0.0,0.0,100,0.00,,,-99.99,VWS V12.07,2013-08-28 01:02:00,
2013-08-27 21:12:00,67.7,67.7,0.00,NE,34,0.0,0.0,100,0.00,,,-99.99,VWS V12.07,2013-08-28 01:12:00,
2013-08-27 21:25:00,67.1,67.1,0.00,NE,34,0.0,0.0,100,0.00,,,-99.99,VWS V12.07,2013-08-28 01:25:00,
2013-08-27 21:35:00,67.0,67.0,0.00,NE,34,0.0,0.0,100,0.00,,,-99.99,VWS V12.07,2013-08-28 01:35:00,
2013-08-27 21:42:00,66.9,66.9,0.00,NE,34,0.0,0.0,100,0.00,,,-99.99,VWS V12.07,2013-08-28 01:42:00,
2013-08-27 21:55:00,66.6,66.6,0.00,NE,34,0.0,0.0,100,0.00,,,-99.99,VWS V12.07,2013-08-28 01:55:00,
2013-08-27 22:02:00,66.3,66.3,0.00,NE,34,0.0,0.0,100,0.00,,,-99.99,VWS V12.07,2013-08-28 02:02:00,
2013-08-27 22:12:00,66.4,66.4,0.00,WSW,240,3.0,3.3,100,0.00,,,-99.99,VWS V12.07,2013-08-28 02:12:00,
2013-08-27 22:25:00,66.4,66.0,0.00,WNW,284,0.0,5.6,99,0.00,,,-99.99,VWS V12.07,2013-08-28 02:25:00,
2013-08-27 22:32:00,66.7,66.2,0.00,WNW,301,3.5,5.6,98,0.00,,,-99.99,VWS V12.07,2013-08-28 02:32:00,
2013-08-27 22:42:00,66.8,66.4,0.00,WNW,301,2.9,6.5,98,0.00,,,-99.99,VWS V12.07,2013-08-28 02:42:00,
2013-08-27 22:52:00,66.8,66.5,0.00,West,263,0.0,6.5,99,0.00,,,-99.99,VWS V12.07,2013-08-28 02:52:00,
2013-08-27 23:02:00,66.8,66.6,0.00,SW,232,0.0,3.3,99,0.00,,,-99.99,VWS V12.07,2013-08-28 03:02:00,
2013-08-27 23:12:00,66.7,66.7,0.00,WNW,288,3.5,7.8,100,0.00,,,-99.99,VWS V12.07,2013-08-28 03:12:00,
2013-08-27 23:22:00,66.7,66.7,0.00,SSW,197,4.2,7.1,100,0.00,,,-99.99,VWS V12.07,2013-08-28 03:22:00,
2013-08-27 23:32:00,66.6,66.6,0.00,NW,309,2.4,7.9,100,0.00,,,-99.99,VWS V12.07,2013-08-28 03:32:00,
2013-08-27 23:42:00,66.5,66.5,0.00,WSW,250,2.3,6.2,100,0.00,,,-99.99,VWS V12.07,2013-08-28 03:42:00,
2013-08-27 23:52:00,66.5,66.5,0.00,WSW,253,4.7,6.2,100,0.00,,,-99.99,VWS V12.07,2013-08-28 03:52:00,